Flag for China Weather past 2 weeks in Langfang, Hebei, China

Now
19 °F

Clear.


Feels Like: 19 °F
Forecast: 24 / 48 °F
Wind: 1 mph from Northeast

Location: Beijing Airport

Current Time: Mar 5, 2015 at 7:35:25 AM

Latest Report: Mar 5, 2015 at 7:00 AM


Visibility: 5 mi

Pressure: 30.36 "Hg

Humidity: 63%

Dew point: 9 °F

Location of LangfangLocation

Historic Weather in Langfang — Graph

°F

Langfang temperature yesterday

Maximum temperature yesterday: 45 °F (at 1:30 PM)
Minimum temperature yesterday: 23 °F (at 6:00 AM)
Average temperature yesterday: 34 °F

Past Weeks' High & Low Weather Summary

 TemperatureHumidityPressure
High59 °F (Mar 2, 3:00 PM)100% (Feb 20, 6:30 AM)30.60 "Hg (Feb 20, 6:30 AM)
Low19 °F (Feb 23, 5:30 AM)6% (Mar 4, 2:00 PM)29.77 "Hg (Mar 2, 2:00 PM)
Average35 °F45%30.21 "Hg
* Reported Feb 18 6:00 AM — Mar 5 6:30 AM, Langfang, Weather by CustomWeather, © 2015

Note: Actual official high and low records may vary slightly from our data, if they occured in-between our weather recording intervals... More about our weather records

Advertising

Langfang weather history for previous 24 hours

 ConditionsComfort  
Time TempWeatherWind HumidityBarometerVisibility
6:30 AM
Thu, Mar 5
19 °FClear.1 mph58%30.36 "Hg5 mi
5:00 AM25 °FClear.3 mph46%30.33 "Hg5 mi
4:30 AM27 °FClear.1 mph39%30.36 "Hg4 mi
4:00 AM25 °FClear.3 mph42%30.36 "Hg4 mi
3:30 AM25 °FClear.3 mph42%30.36 "Hg4 mi
3:00 AM25 °FClear.3 mph42%30.36 "Hg5 mi
2:30 AM27 °FPassing clouds.3 mph39%30.39 "HgN/A
2:00 AM25 °FClear.1 mph42%30.39 "Hg10 mi
1:30 AM27 °FClear.1 mph36%30.39 "Hg10 mi
1:00 AM27 °FClear.1 mph36%30.39 "Hg10 mi
12:30 AM27 °FClear.1 mph39%30.36 "Hg10 mi
12:00 AM28 °FClear.No wind34%30.36 "Hg10 mi
11:30 PM
Wed, Mar 4
27 °FClear.1 mph36%30.36 "Hg10 mi
11:00 PM28 °FClear.3 mph34%30.36 "Hg10 mi
10:30 PM30 °FPassing clouds.3 mph29%30.36 "HgN/A
10:00 PM30 °FPassing clouds.3 mph26%30.36 "HgN/A
9:30 PM34 °FClear.3 mph18%30.36 "Hg10 mi
9:00 PM36 °FClear.3 mph15%30.36 "Hg10 mi
8:30 PM39 °FClear.8 mph12%30.36 "Hg10 mi
8:00 PM39 °FPassing clouds.10 mph12%30.33 "HgN/A
7:30 PM39 °FPassing clouds.10 mph12%30.33 "HgN/A
7:00 PM36 °FPassing clouds.8 mph14%30.33 "HgN/A
6:30 PM37 °FPassing clouds.6 mph13%30.30 "HgN/A
6:00 PM39 °FPassing clouds.8 mph11%30.30 "HgN/A
5:30 PM41 °FPassing clouds.8 mph9%30.30 "HgN/A
5:00 PM43 °FPassing clouds.8 mph9%30.30 "HgN/A
4:30 PM43 °FSunny.6 mph8%30.30 "Hg10 mi
4:00 PM43 °FPassing clouds.6 mph8%30.30 "HgN/A
3:30 PM43 °FPassing clouds.3 mph7%30.30 "HgN/A
3:00 PM43 °FPassing clouds.8 mph7%30.30 "HgN/A
2:30 PM43 °FPassing clouds.10 mph6%30.33 "HgN/A
2:00 PM43 °FSunny.3 mph6%30.33 "Hg10 mi
1:30 PM45 °FSunny.3 mph7%30.36 "Hg10 mi
1:00 PM41 °FSunny.3 mph8%30.36 "Hg10 mi
12:30 PM39 °FPassing clouds.6 mph7%30.39 "HgN/A
12:00 PM39 °FSunny.3 mph8%30.39 "Hg10 mi
11:30 AM37 °FSunny.3 mph10%30.42 "Hg10 mi
11:00 AM37 °FPassing clouds.3 mph11%30.42 "HgN/A
10:30 AM36 °FPassing clouds.3 mph11%30.45 "HgN/A
10:00 AM36 °FPassing clouds.3 mph10%30.45 "HgN/A
9:30 AM32 °FSunny.1 mph15%30.45 "Hg10 mi
9:00 AM34 °FSunny.1 mph15%30.45 "Hg10 mi
8:30 AM32 °FSunny.1 mph19%30.45 "Hg10 mi
8:00 AM28 °FSunny.1 mph22%30.42 "Hg10 mi
7:30 AM25 °FSunny.No wind33%30.42 "Hg10 mi
7:00 AM23 °FSunny.1 mph25%30.39 "Hg10 mi
Weather by CustomWeather, © 2015

See weather overviewHow to use our weather pages